Zurück zum Katalog

DELTA 1 DEB

AktivSSO
NORAD 42638·DEBRIS·🇺🇸 United States

Gestartet Jun 12, 1975 von Vandenberg Space Force Base

Loading…

Nächste Überflüge (nächste 24 Stunden)

TLE

AlterndSource: Space-Track

Epoche: Sep 3, 2026, 12:50 UTC

1 42638U 75052LX  26246.53518126  .00001008  00000-0  12685-2 0  9996
2 42638  99.7378   1.4033 0043903 202.8244 157.0948 13.66182672589480

Verfolge DELTA 1 DEB in Echtzeit mit AllMySat

Download on the App Store